Location: Bois de la Silve
(44.4667°N, 6.7833°E)
Time: 23:12:00
(UTC+00:00)

USA 238 DEB - Pass Details

Date: 27 October 2020
Orbit: 1001 x 1211 km, 63.5° (Epoch: 22 November)

Event Time Altitude Azimuth Distance (km) Brightness Sun altitude
Exits shadow 05:11:34 11° 292° (WNW) 2,768 5.2 -9.9°
Maximum altitude 05:16:12 21° 338° (NNW) 2,185 5.1 -9.1°
Drops below altitude 10° 05:21:24 10° 26° (NNE) 2,971 6.2 -8.2°
Sets 05:24:56 0° 42° (NE) 3,972 7.1 -7.6°
